Simultaneous Nadir Overpasses (SNOs) Predictions

Prediction of SNOs between GOES-16 and NOAA-19 Satellite Orbit:

Table of predicted SNOs for the next 14.0 days since TLE Epoch: 11/2/2024
Index Date Time (GOES-16) GOES-16 Lat,Lon NOAA-19 Lat,Lon Distance(km) Time Diff (sec)
1 11/03/2024 14:41:56 -0.05, -75.21 0.49, -77.64 276.91 80
2 11/04/2024 14:26:48 -0.05, -75.21 -0.16, -74.61 68.55 80
3 11/05/2024 14:14:22 -0.04, -75.22 -0.87, -71.59 413.98 80
4 11/07/2024 02:48:32 0.04, -75.20 -0.85, -79.16 450.67 80
5 11/08/2024 02:36:05 0.03, -75.21 -0.18, -76.13 104.85 80
6 11/09/2024 02:23:37 0.03, -75.21 0.49, -73.09 241.17 80
7 11/11/2024 14:42:41 -0.02, -75.25 0.51, -77.64 272.48 80
8 11/12/2024 14:27:34 -0.02, -75.26 -0.19, -74.62 74.30 80
9 11/13/2024 14:15:06 -0.02, -75.28 -0.90, -71.59 421.15 80
10 11/15/2024 02:49:16 0.02, -75.28 -0.86, -79.15 441.90 80
